Home   Weather   Panama City   Past weeks

Flag for USA Past Weather in Panama City, Florida, USA — Yesterday and Last 2 Weeks

Now
53 °F

Clear.


Feels Like: 52 °F
Forecast: 53 / 67 °F
Wind: 5 mph from East

Location: Tyndall Air Force Base

Current Time: Dec 3, 2016 at 5:48:45 am

Latest Report: Dec 3, 2016 at 4:56 am


Visibility: 10 mi

Pressure: 30.21 "Hg

Humidity: 52%

Dew Point: 36 °F

Location of Panama CityLocation

Past Weather in Panama City — Graph

°F

Panama City Temperature Yesterday

Maximum temperature yesterday: 69 °F (at 1:56 pm)
Minimum temperature yesterday: 50 °F (at 6:56 am)
Average temperature yesterday: 57 °F

High & Low Weather Summary for the Past Weeks

 TemperatureHumidityPressure
High79 °F (Nov 29, 12:56 pm)100% (Nov 18, 3:01 am)30.35 "Hg (Nov 18, 3:01 am)
Low40 °F (Nov 21, 10:56 pm)14% (Nov 21, 12:56 pm)29.81 "Hg (Nov 28, 11:56 pm)
Average61 °F68%30.13 "Hg
* Reported Nov 18 3:01 am — Dec 3 3:56 am, Panama City, Weather by CustomWeather, © 2016

Note: Actual official high and low records may vary slightly from our data, if they occured in-between our weather recording intervals... More about our weather records

Advertising

Panama City Weather History for the Previous 24 Hours

Scroll right to see more
 ConditionsComfort  
Time TempWeatherWind HumidityBarometerVisibility
3:56 am
Sat, Dec 3
54 °FPassing clouds.7 mph51%30.19 "Hg10 mi
2:56 am54 °FPassing clouds.5 mph50%30.22 "Hg10 mi
1:56 am54 °FPassing clouds.6 mph52%30.23 "Hg10 mi
12:56 am54 °FPassing clouds.6 mph53%30.21 "Hg10 mi
11:56 pm
Fri, Dec 2
54 °FPassing clouds.3 mph52%30.22 "Hg10 mi
10:56 pm54 °FClear.5 mph50%30.23 "Hg10 mi
9:56 pm55 °FClear.3 mph49%30.24 "Hg10 mi
8:56 pm56 °FClear.6 mph49%30.23 "Hg10 mi
7:56 pm56 °FClear.5 mph52%30.23 "Hg10 mi
6:56 pm57 °FClear.No wind54%30.23 "Hg10 mi
5:56 pm58 °FClear.3 mph47%30.21 "Hg10 mi
4:56 pm61 °FClear.3 mph39%30.17 "Hg10 mi
3:56 pm64 °FClear.6 mph34%30.18 "Hg10 mi
2:56 pm67 °FSunny.7 mph28%30.17 "Hg10 mi
1:56 pm69 °FSunny.8 mph25%30.17 "Hg10 mi
12:56 pm67 °FSunny.10 mph26%30.17 "Hg10 mi
11:56 am65 °FSunny.10 mph29%30.20 "Hg10 mi
10:56 am62 °FSunny.10 mph34%30.22 "Hg10 mi
9:56 am60 °FSunny.10 mph38%30.24 "Hg10 mi
8:56 am55 °FPassing clouds.10 mph45%30.26 "Hg10 mi
7:56 am52 °FPassing clouds.10 mph51%30.25 "Hg10 mi
6:56 am50 °FPassing clouds.12 mph56%30.22 "Hg10 mi
5:56 am50 °FScattered clouds.8 mph55%30.21 "Hg10 mi
Weather by CustomWeather, © 2016

See weather overviewHow to use our weather pages